Regional Weather Roundup
Issued by NWS

Home | Current Version | Previous Version | Graphics & Text | Print | Product List | Glossary On
Versions: 1 2 3 4 5 6 7 8 9 10 11 12 13 14 15 16 17 18 19 20 21 22 23 24 25 26 27 28 29 30 31 32 33 34 35 36 37 38 39 40 41 42 43 44 45 46 47 48 49 50
343
ASUS44 KJAN 200703
RWRMS

MISSISSIPPI HOURLY WEATHER ROUNDUP
NATIONAL WEATHER SERVICE JACKSON MS
200 AM CDT SAT SEP 20 2014

NOTE: "FAIR: INDICATES FEW OR NO CLOUDS BELOW 12,000 FEET WITH NO
SIGNIFICANT WEATHER AND/OR OBSTRUCTIONS TO VISIBILITY.

MSZ001>002-007>008-010>013-018>021-025>028-034>036-200800-
NORTHWEST MISSISSIPPI

CITY           SKY/WX    TMP DP  RH WIND       PRES   REMARKS
CLARKSDALE     FAIR      70  70 100 CALM      30.02S
CLEVELAND      FAIR      70  69  96 E5        29.99S
GREENWOOD      CLEAR     72  67  84 E6        29.99S
GREENVILLE     CLEAR     70  66  87 CALM      29.98F
GRENADA        FAIR      68  66  94 CALM      30.01S
OLIVE BRANCH   CLEAR     68  68 100 SE6       30.03S
OXFORD         FAIR      64  64 100 CALM      30.05S
TUNICA         SUNNY     68  66  94 CALM      30.02S
$$

MSZ003>006-009-014>017-022>024-029>033-037>039-200800-
NORTHEAST MISSISSIPPI

CITY           SKY/WX    TMP DP  RH WIND       PRES   REMARKS
COLUMBUS AFB   PTCLDY    71  65  82 VRB1      30.03R
CORINTH          N/A     66  64  94 CALM      30.04S
GOLDN TRIANGLE CLEAR     73  63  68 SE12      30.02S
STARKVILLE     FAIR      72  64  78 E3        30.02R
TUPELO         CLEAR     73  67  81 SE6       30.03S
$$

MSZ040-058-200800-
CENTRAL MISSISSIPPI

CITY           SKY/WX    TMP DP  RH WIND       PRES   REMARKS
JACKSON INTL   CLEAR     69  68  96 CALM      29.97F
JACKSON HAWKNS CLEAR     72  69  90 CALM      29.98F
MERIDIAN KEY   CLEAR     74  65  73 VRB5      30.00S
MERIDIAN NAS   CLEAR     70  65  84 E8        30.01S
RAYMOND        HAZE      68  63  83 CALM      29.98S VSB 3/4
VICKSBURG      CLEAR     67  65  93 CALM      29.97F
$$

MSZ059>079-200800-
SOUTH MISSISSIPPI

CITY           SKY/WX    TMP DP  RH WIND       PRES   REMARKS
BROOKHAVEN     FAIR      66  66 100 CALM      29.99F FOG
COLUMBIA       FAIR      66  66 100 CALM      29.96F FOG
HATTIESBURG    CLEAR     69  67  93 CALM      29.98F
MCCOMB         CLEAR     70  68  93 CALM      29.97F
NATCHEZ        CLEAR     72  68  88 CALM      29.97F
PINE BELT      CLEAR    N/A N/A N/A CALM      29.99S
$$

MSZ080>082-200800-
COASTAL MISSISSIPPI

CITY           SKY/WX    TMP DP  RH WIND       PRES   REMARKS
BILOXI         CLEAR     74  69  82 E7        29.95F
PASCAGOULA     CLEAR     71  69  93 NE5       29.95F
GULFPORT       CLEAR     75  69  81 NE5       29.94F
$$



USA.gov is the U.S. government's official web portal to all federal, state and local government web resources and services.